Location: Alma
(38.7220°N, 88.9090°W)
Time: 05:17:55
(UTC-06:00)

Vanguard 2 Rocket - Pass Details

Date: 22 November 2019
Orbit: 554 x 3326 km, 32.9° (Epoch: 06 December)

Event Time Altitude Azimuth Distance (km) Brightness Sun altitude
Rises 02:11:36 0° 260° (W) 2,756 - -52.8°
Reaches altitude 10° 02:13:39 10° 253° (WSW) 1,941 - -52.4°
Maximum altitude 02:17:43 44° 180° (S) 1,007 - -51.6°
Drops below altitude 10° 02:23:36 10° 110° (ESE) 2,806 - -50.6°
Exits shadow 02:23:53 - 109° (ESE) 2,918 9.8 -50.5°
Sets 02:27:09 0° 105° (ESE) 4,175 10.8 -49.9°
